User: anonymous   Login
Location: Tyler Bend Campground
(35.9875°N, 92.7606°W)
Time: 04:48:38
(UTC-06:00)
Language:

Iridium 39 - Orbit

View from above orbital plane
View from above orbital plane
View from above satellite
View from above satellite

Ground track
Ground track

The orbit data is extracted from the following two-line orbital elements,

1 25042U 97069D   17015.23657006  .00000095  00000-0  20670-4 0  9990
2 25042  86.3919  84.4861 0021249 100.8706 259.4889 14.46120872  4613
Epoch (UTC): 15 January 2017 05:40:39
Eccentricity: 0.0021249
inclination: 86.3919°
perigee height: 723 km
apogee height: 753 km
right ascension of ascending node: 84.4861°
argument of perigee: 100.8706°
revolutions per day: 14.46120872
mean anomaly at epoch: 259.4889°
orbit number at epoch: 461

The dashed part of the orbit path shows where the satellite is in the earth's shadow,  

DLR